Volver al catálogo

STARLINK-32961

ActivoComunicacionesVLEO
NORAD 63122·PAYLOAD·🇺🇸 United States

Lanzado Feb 27, 2025 desde Cape Canaveral Space Force Station

Loading…

Próximos Pases (próximas 24 horas)

TLE

ActualizadoSource: CelesTrak SupGP

Época: Sep 15, 2026, 02:18 UTC

1 63122C 25039U   26258.09631944 -.00012242  00000+0 -44348-3 0  2588
2 63122  43.0017  23.1849 0001509 273.4423  70.3703 15.27578060    10

Sigue STARLINK-32961 en tiempo real con AllMySat

Download on the App Store